Flag for Germany Weather past 2 weeks in Freising, Bavaria, Germany

Now
52 °F

Passing clouds.


Feels Like: 52 °F
Forecast: 56 / 78 °F
Wind: 2 mph from South

Location: Muenchen Flughafen

Current Time: Jul 25, 2014 at 5:49:05 AM

Latest Report: Jul 25, 2014 at 5:00 AM


Visibility: 13 mi

Pressure: 29.94 "Hg

Humidity: 99%

Dew point: 52 °F

Location of FreisingLocation

Historic Weather in Freising — Graph

°F

Freising temperature yesterday

Maximum temperature yesterday: 76 °F (at 3:00 PM)
Minimum temperature yesterday: 51 °F (at 6:00 AM)
Average temperature yesterday: 64 °F

Past Weeks' High & Low Weather Summary

 TemperatureHumidityPressure
High88 °F (Jul 19, 4:00 PM)100% (Jul 23, 4:00 AM)30.18 "Hg (Jul 23, 4:00 AM)
Low51 °F (Jul 24, 6:00 AM)32% (Jul 17, 6:00 PM)29.76 "Hg (Jul 20, 2:00 PM)
Average66 °F74%29.94 "Hg
* Reported Jul 10 4:00 AM — Jul 25 4:00 AM, Freising, Weather by CustomWeather, © 2014

Note: Actual official high and low records may vary slightly from our data, if they occured in-between our weather recording intervals... More about our weather records

Advertising

Freising weather history for previous 24 hours

 ConditionsComfort  
Time TempWeatherWind HumidityBarometerVisibility
4:00 AM
Jul 25
52 °FPassing clouds.1 mph97%29.93 "Hg19 mi
3:00 AM54 °FPassing clouds.1 mph97%29.93 "Hg19 mi
2:00 AM57 °FPassing clouds.1 mph91%29.92 "Hg16 mi
1:00 AM56 °FPassing clouds.1 mph94%29.92 "Hg16 mi
12:00 AM58 °FPassing clouds.1 mph89%29.91 "Hg19 mi
11:00 PM
Jul 24
62 °FPassing clouds.1 mph78%29.90 "Hg19 mi
10:00 PM62 °FPassing clouds.N/A82%29.88 "Hg19 mi
9:00 PM64 °FPassing clouds.3 mph84%29.86 "Hg19 mi
8:00 PM72 °FPartly sunny.3 mph63%29.83 "Hg22 mi
7:00 PM75 °FPartly sunny.2 mph51%29.82 "Hg22 mi
6:00 PM74 °FPartly sunny.1 mph59%29.83 "Hg19 mi
5:00 PM71 °FPartly sunny.1 mph72%29.84 "Hg19 mi
4:00 PM68 °FSprinkles. Partly sunny.1 mph63%29.87 "Hg19 mi
3:00 PM76 °FPartly sunny.2 mph41%29.83 "Hg19 mi
2:00 PM75 °FScattered clouds.5 mph50%29.84 "Hg25 mi
1:00 PM75 °FPartly sunny.5 mph52%29.85 "Hg25 mi
12:00 PM73 °FScattered clouds.5 mph56%29.85 "Hg25 mi
11:00 AM71 °FPassing clouds.5 mph61%29.86 "Hg22 mi
10:00 AM68 °FPassing clouds.3 mph69%29.87 "Hg16 mi
9:00 AM63 °FScattered clouds.3 mph82%29.89 "Hg7 mi
8:00 AM60 °FScattered clouds.2 mph93%29.89 "Hg6 mi
7:00 AM54 °FFog.2 mph100%29.91 "Hg6 mi
6:00 AM51 °FFog.1 mph100%29.92 "Hg9 mi
5:00 AM52 °FFog.1 mph100%29.91 "Hg9 mi
Weather by CustomWeather, © 2014

See weather overviewHow to use our weather pages